Overview Statistics Trail Chart Weather Telemetry Raw packets
 

This is the latest recevied weather packets stored in our database for station/object 1NW106. If no packets are shown the sender has not sent any weather packets the latest 10 day(s).

<< 25 26 27 28 29 30 31 >>
Time Temp. Humidity Pressure Rain* Wind** Luminosity Snow
1788010172 25° C 99% 1004.8 hPa 28.7 mm - - -
1788009620 25° C 99% 1004.1 hPa 28.7 mm - - -
1788008971 25° C 99% 1002.9 hPa 28.7 mm - - -
1788008372 25° C 99% 1002.9 hPa 28.7 mm - - -
1788007771 25° C 99% 1002.8 hPa 28.7 mm - - -
1788007171 25° C 99% 1002.5 hPa 28.7 mm - - -
1788006573 25.56° C 99% 1002.6 hPa 28.7 mm - - -
1788005971 25.56° C 99% 1002.8 hPa 28.7 mm - - -
1788005371 25.56° C 99% 1002.9 hPa 28.7 mm - - -
1788004771 26.11° C 99% 1002.5 hPa 28.7 mm - - -
1788004171 26.11° C 99% 1002.7 hPa 28.7 mm - - -
1788003571 26.67° C 99% 1003 hPa 28.7 mm - - -
1788002971 26.67° C 99% 1003.2 hPa 28.7 mm - - -
1788002371 26.67° C 98% 1003.8 hPa 28.7 mm - - -
1788001780 27.22° C 99% 1003.7 hPa 28.7 mm - - -
1788001171 27.22° C 94% 1004.3 hPa 28.7 mm - - -
1788000571 27.22° C 95% 1004.3 hPa 28.7 mm - - -
1787999971 27.22° C 94% 1004.3 hPa 28.7 mm - - -
1787999371 27.22° C 94% 1004.4 hPa 28.7 mm - - -
1787998772 27.78° C 96% 1003.9 hPa 28.7 mm - - -
1787998171 27.78° C 97% 1003.3 hPa 28.7 mm - - -
1787997571 28.33° C 99% 1002.3 hPa 28.7 mm - - -
1787996971 27.78° C 99% 1002.3 hPa 28.7 mm - - -
1787996371 27.78° C 99% 1002.2 hPa 28.7 mm - - -
1787995771 28.33° C 99% 1002.7 hPa 28.7 mm - - -

* Rain latest hour (hover to see other rain measurements)
** Current wind speed in m/s (hover to see current wind gust speed)